Fort Lewis, WA
on Saturday, December 29, 2012

Saturday
Previous Day Next Day
Daily Summary
 ActualAverage (KOLM)Record (KOLM)
Temperature
Mean Temperature °F 38°F  
Max Temperature 41°F 44°F 55°F (1975)
Min Temperature 32°F 33°F 4°F (1990)
Degree Days
Heating Degree Days 28 27  
Month to date heating degree days 772  
Since 1 July heating degree days 2217  
Cooling Degree Days 0 0  
Month to date cooling degree days 0  
Year to date cooling degree days 106  
Moisture
Dew Point 36°F   
Average Humidity 96    
Maximum Humidity 100    
Minimum Humidity 80    
Precipitation
Precipitation 0.06 in 0.23 in 2.03 in (1988)
Month to date precipitation 7.02  
Year to date precipitation 49.56  
Wind
Wind Speed 2 mph   
Max Wind Speed 5 mph   
Max Gust Speed mph   
Visibility 7 miles   
Events Fog   

Key: T is trace of precipitation, MM is missing value
Source: NWS Daily Summary
Time(PST)TemperatureDew PointHumidity Pressure Visibility Wind DirectionWind SpeedGust SpeedPrecipitationEvents Conditions
12:03 AM 35.6°F 33.8°F 93% 30.15 in 1.2 miles SE 2.3 mph - N/A   Scattered Clouds
12:08 AM 35.6°F 35.6°F 100% 30.15 in 1.5 miles SE 2.3 mph - N/A   Scattered Clouds
12:13 AM 35.6°F 35.6°F 100% 30.15 in 2.0 miles SE 2.3 mph - N/A   Partly Cloudy
12:18 AM 35.6°F 35.6°F 100% 30.15 in 3.0 miles SE 3.5 mph - N/A   Partly Cloudy
12:28 AM 33.8°F 33.8°F 100% 30.16 in 2.5 miles SSE 3.5 mph - N/A   Clear
12:33 AM 33.8°F 33.8°F 100% 30.15 in 1.8 miles SE 3.5 mph - N/A   Clear
12:43 AM 35.6°F 33.8°F 93% 30.15 in 2.0 miles SE 2.3 mph - N/A   Clear
12:48 AM 35.6°F 33.8°F 93% 30.15 in 3.0 miles ESE 2.3 mph - N/A   Clear
12:53 AM 33.8°F 33.8°F 100% 30.15 in 5.0 miles East 1.2 mph - N/A   Clear
12:58 AM 34.3°F 34.2°F 99% 30.17 in 9.0 miles ESE 1.2 mph - N/A   Clear
1:13 AM 32.0°F 32.0°F 100% 30.15 in 2.0 miles SE 3.5 mph - N/A   Clear
1:18 AM 32.0°F 32.0°F 100% 30.15 in 1.2 miles SE 3.5 mph - N/A   Clear
1:23 AM 32.0°F 32.0°F 100% 30.15 in 1.5 miles SE 4.6 mph - N/A   Clear
1:28 AM 32.0°F 32.0°F 100% 30.15 in 3.0 miles SSE 4.6 mph - N/A   Clear
1:43 AM 33.8°F 32.0°F 93% 30.16 in 2.5 miles Calm Calm - N/A   Mostly Cloudy
1:48 AM 33.8°F 33.8°F 100% 30.16 in 5.0 miles ESE 2.3 mph - N/A   Mostly Cloudy
1:58 AM 34.0°F 33.8°F 99% 30.18 in 5.0 miles SE 3.5 mph - N/A   Overcast
2:58 AM 33.3°F 32.9°F 99% 30.19 in 4.0 miles ESE 2.3 mph - N/A   Overcast
3:28 AM 33.8°F 33.8°F 100% 30.18 in 5.0 miles SE 2.3 mph - N/A   Overcast
3:33 AM 33.8°F 33.8°F 100% 30.18 in 1.8 miles ESE 2.3 mph - N/A   Overcast
3:38 AM 33.8°F 33.8°F 100% 30.18 in 1.8 miles SE 3.5 mph - N/A   Overcast
3:43 AM 33.8°F 33.8°F 100% 30.17 in 5.0 miles SE 4.6 mph - N/A   Overcast
3:58 AM 34.3°F 34.2°F 99% 30.19 in 5.0 miles East 2.3 mph - N/A   Overcast
4:58 AM 35.8°F 35.6°F 99% 30.18 in 10.0 miles Calm Calm - N/A   Overcast
5:18 AM 35.6°F 35.6°F 100% 30.17 in 10.0 miles Calm Calm - N/A   Overcast
5:38 AM 35.6°F 35.6°F 100% 30.17 in 10.0 miles SSE 3.5 mph - N/A   Overcast
5:58 AM 35.6°F 35.4°F 99% 30.19 in 10.0 miles SE 4.6 mph - N/A   Overcast
6:58 AM 36.0°F 35.6°F 99% 30.19 in 10.0 miles SE 2.3 mph - N/A   Overcast
7:23 AM 35.6°F 35.6°F 100% 30.17 in 10.0 miles SE 2.3 mph - N/A   Mostly Cloudy
7:28 AM 35.6°F 35.6°F 100% 30.16 in 10.0 miles SE 3.5 mph - N/A   Mostly Cloudy
7:43 AM 33.8°F 33.8°F 100% 30.17 in 2.0 miles SE 2.3 mph - N/A   Mostly Cloudy
7:48 AM 33.8°F 33.8°F 100% 30.17 in 1.0 miles SE 3.5 mph - N/A   Scattered Clouds
7:53 AM 33.8°F 33.8°F 100% 30.17 in 0.5 miles SE 4.6 mph - N/A Fog Fog
7:58 AM 33.8°F 33.8°F 100% 30.19 in 0.5 miles SE 4.6 mph - N/A Fog Fog
8:08 AM 33.8°F 33.8°F 100% 30.17 in 1.5 miles East 1.2 mph - N/A   Scattered Clouds
8:13 AM 33.8°F 33.8°F 100% 30.17 in 6.0 miles East 1.2 mph - N/A   Scattered Clouds
8:28 AM 33.8°F 32.0°F 93% 30.17 in 1.0 miles SSE 2.3 mph - N/A   Scattered Clouds
8:33 AM 32.0°F 32.0°F 100% 30.17 in 0.8 miles SSE 3.5 mph - N/A   Partly Cloudy
8:38 AM 32.0°F 32.0°F 100% 30.17 in 0.5 miles SSE 2.3 mph - N/A Fog Fog
8:43 AM 32.0°F 32.0°F 100% 30.17 in 0.8 miles South 1.2 mph - N/A   Partly Cloudy
8:48 AM 32.0°F 32.0°F 100% 30.17 in 1.5 miles Calm Calm - N/A   Partly Cloudy
8:53 AM 32.0°F 32.0°F 100% 30.18 in 4.0 miles South 1.2 mph - N/A   Partly Cloudy
8:58 AM 33.4°F 33.3°F 99% 30.20 in 6.0 miles Calm Calm - N/A   Scattered Clouds
9:58 AM 37.0°F 36.9°F 99% 30.21 in 10.0 miles SSE 1.2 mph - N/A   Overcast
10:58 AM 38.8°F 34.9°F 86% 30.19 in 10.0 miles SE 3.5 mph - N/A   Mostly Cloudy
11:43 AM 41.0°F 35.6°F 81% 30.16 in 10.0 miles Variable 2.3 mph - N/A   Mostly Cloudy
11:58 AM 40.5°F 35.4°F 82% 30.17 in 10.0 miles South 2.3 mph - N/A   Overcast
12:58 PM 41.2°F 35.4°F 80% 30.17 in 10.0 miles WSW 3.5 mph - N/A   Overcast
1:58 PM 40.1°F 37.2°F 89% 30.15 in 10.0 miles SSW 4.6 mph - N/A   Overcast
2:08 PM 39.2°F 37.4°F 93% 30.13 in 10.0 miles South 3.5 mph - N/A   Overcast
2:28 PM 39.2°F 37.4°F 93% 30.13 in 10.0 miles South 2.3 mph - N/A   Light Drizzle
2:34 PM 39.2°F 37.4°F 93% 30.13 in 10.0 miles South 2.3 mph - N/A   Overcast
2:54 PM 39.2°F 37.4°F 93% 30.14 in 10.0 miles SE 1.2 mph - N/A   Light Drizzle
2:58 PM 39.7°F 37.9°F 93% 30.16 in 10.0 miles Calm Calm - 0.01 in   Light Drizzle
3:13 PM 39.2°F 37.4°F 93% 30.14 in 10.0 miles Calm Calm - N/A   Light Drizzle
3:19 PM 39.2°F 37.4°F 93% 30.14 in 10.0 miles Calm Calm - N/A   Overcast
3:24 PM 39.2°F 37.4°F 93% 30.14 in 10.0 miles Calm Calm - N/A   Light Drizzle
3:34 PM 39.2°F 37.4°F 93% 30.14 in 10.0 miles South 2.3 mph - N/A   Light Drizzle
3:37 PM 39.2°F 37.4°F 93% 30.14 in 10.0 miles South 2.3 mph - N/A   Overcast
3:41 PM 39.2°F 37.4°F 93% 30.14 in 9.0 miles SSE 1.2 mph - N/A   Light Drizzle
3:58 PM 39.6°F 37.9°F 94% 30.16 in 10.0 miles South 1.2 mph - 0.03 in   Light Drizzle
4:03 PM 39.2°F 37.4°F 93% 30.14 in 9.0 miles South 2.3 mph - N/A   Light Drizzle
4:22 PM 39.2°F 39.2°F 100% 30.15 in 10.0 miles SSE 1.2 mph - N/A   Overcast
4:27 PM 39.2°F 39.2°F 100% 30.15 in 10.0 miles Calm Calm - N/A   Overcast
4:52 PM 39.2°F 37.4°F 93% 30.15 in 10.0 miles Calm Calm - N/A   Light Drizzle
4:57 PM 39.2°F 37.4°F 93% 30.15 in 9.0 miles Calm Calm - N/A   Light Drizzle
4:58 PM 39.4°F 38.1°F 95% 30.17 in 9.0 miles Calm Calm - 0.01 in   Light Drizzle
5:01 PM 39.2°F 37.4°F 93% 30.15 in 9.0 miles Calm Calm - N/A   Overcast
5:11 PM 39.2°F 37.4°F 93% 30.15 in 10.0 miles Calm Calm - N/A   Overcast
5:26 PM 39.2°F 37.4°F 93% 30.15 in 10.0 miles Calm Calm - N/A   Overcast
5:39 PM 39.2°F 37.4°F 93% 30.15 in 10.0 miles Calm Calm - N/A   Overcast
5:54 PM 39.2°F 37.4°F 93% 30.15 in 10.0 miles East 2.3 mph - N/A   Overcast
5:58 PM 38.8°F 37.8°F 96% 30.18 in 10.0 miles East 2.3 mph - 0.00 in   Overcast
6:13 PM 39.2°F 37.4°F 93% 30.16 in 10.0 miles East 2.3 mph - N/A   Overcast
6:22 PM 39.2°F 37.4°F 93% 30.16 in 10.0 miles ENE 1.2 mph - N/A   Overcast
6:27 PM 39.2°F 37.4°F 93% 30.16 in 10.0 miles ENE 2.3 mph - N/A   Light Drizzle
6:32 PM 39.2°F 37.4°F 93% 30.16 in 10.0 miles ENE 2.3 mph - N/A   Overcast
6:37 PM 39.2°F 37.4°F 93% 30.16 in 10.0 miles ENE 2.3 mph - N/A   Overcast
6:58 PM 38.5°F 37.8°F 97% 30.18 in 10.0 miles NE 1.2 mph - 0.01 in   Overcast
7:08 PM 39.2°F 37.4°F 93% 30.17 in 10.0 miles NNW 1.2 mph - N/A   Overcast
7:58 PM 38.5°F 37.8°F 97% 30.19 in 10.0 miles Calm Calm - N/A   Overcast
8:58 PM 38.5°F 37.9°F 98% 30.20 in 10.0 miles Calm Calm - N/A   Overcast
9:08 PM 39.2°F 37.4°F 93% 30.18 in 10.0 miles ESE 1.2 mph - N/A   Overcast
9:28 PM 39.2°F 37.4°F 93% 30.19 in 10.0 miles Calm Calm - N/A   Overcast
9:43 PM 39.2°F 37.4°F 93% 30.19 in 10.0 miles Calm Calm - N/A   Overcast
9:58 PM 38.5°F 37.8°F 97% 30.22 in 10.0 miles Calm Calm - N/A   Overcast
10:33 PM 39.2°F 37.4°F 93% 30.20 in 10.0 miles West 2.3 mph - N/A   Overcast
10:48 PM 39.2°F 37.4°F 93% 30.21 in 10.0 miles WNW 2.3 mph - N/A   Overcast
10:58 PM 38.5°F 37.9°F 98% 30.23 in 10.0 miles WNW 1.2 mph - N/A   Overcast
11:17 PM 39.2°F 37.4°F 93% 30.22 in 10.0 miles NW 1.2 mph - N/A   Overcast
11:42 PM 39.2°F 37.4°F 93% 30.22 in 10.0 miles Calm Calm - N/A   Overcast
11:58 PM 38.5°F 38.3°F 99% 30.24 in 10.0 miles East 3.5 mph - N/A   Overcast
Moon Phase
Dec. 29 Jan. 04 Jan. 11 Jan. 18 Jan. 26
Sunrise:07:56 AM (PST) Moon Rise:06:14 PM (PST)
Sunset:04:29 PM (PST) Moon Set:08:26 AM (PST)

Copyright © 2014 The Weather Underground, Inc.